Regional Weather Roundup
Issued by NWS

Home | Current Version | Previous Version | Text Only | Print | Product List | Glossary Off
Versions: 1 2 3 4 5 6 7 8 9 10 11 12 13 14 15 16 17 18 19 20 21 22 23 24 25 26 27 28 29 30 31 32 33 34 35 36 37 38 39 40 41 42 43 44 45 46 47 48 49 50

000
ASUS43 KLOT 271009
RWRIL

ILLINOIS REGIONAL WEATHER ROUNDUP
NATIONAL WEATHER SERVICE CHICAGO/ROMEOVILLE IL
500 AM CDT WED JUL 27 2016

NOTE: "FAIR" INDICATES FEW OR NO CLOUDS BELOW 12,000 FEET WITH NO
SIGNIFICANT WEATHER AND/OR OBSTRUCTIONS TO VISIBILITY.

* THESE STATIONS ARE NOT UNDER NWS QUALITY CONTROL. THEY ALSO MAY NOT
  REPORT WEATHER SUCH AS PRECIPITATION OR FOG.

ILZ001-002-007-009-015-016-024-271100-
NORTHWEST ILLINOIS

CITY           SKY/WX    TMP DP  RH WIND       PRES   REMARKS
MOLINE         CLEAR     66  63  90 CALM      30.01R
STERLING*      CLEAR     67  66  97 CALM      30.02R
SAVANNA*       CLEAR     65  64  99 NE3       30.01R
$$

ILZ003-004-008-010-011-017-018-271100-
NORTH CENTRAL ILLINOIS

CITY           SKY/WX    TMP DP  RH WIND       PRES   REMARKS
ROCKFORD       CLEAR     68  61  78 CALM      30.03R
FREEPORT*      CLEAR     61  59  95 CALM      30.04R
ROCHELLE*      CLEAR     63  63  98 CALM      30.04R
DE KALB*       CLEAR     64  63  95 CALM      30.04R
$$

ILZ005-006-012>014-019>023-271100-
NORTHEAST ILLINOIS

CITY           SKY/WX    TMP DP  RH WIND       PRES   REMARKS
CHICAGO-OHARE  PTCLDY    71  64  78 N3        30.01R
CHICAGO-MIDWAY CLEAR     72  65  78 CALM      30.01R
AURORA         CLEAR     64  62  93 CALM      30.02R
LANSING*       CLEAR     68  64  85 CALM      30.02R
JOLIET*        CLEAR     67  67  98 CALM      30.02R FOG
WAUKEGAN       CLEAR     68  66  93 CALM      30.00S
DUPAGE AIRPORT CLEAR     66  63  90 N3        30.02R
KANKAKEE*      CLEAR     66  64  94 CALM      30.03R
WHEELING       CLEAR     68  64  87 CALM      30.02R
MORRIS*        CLEAR     67  66  95 CALM      30.01R
ROMEOVILLE*    CLEAR     67  64  91 CALM      30.02R
NORTHERLY ISL    N/A     74  64  71 W3          N/A
$$

LMZ740>746-271100-
SOUTHERN LAKE MICHIGAN

STATION/POSITION SKY/WX   TEMP    WIND        PRES    VSBY  WAVE
                          AIR SEA DIR/SP/G                  HT/PER
                          (F)     (DEG/KT/KT) (MB)    (MI)  (FT/S)
SOUTHERN BUOY              75 75  220/  6/  8 1015.2R         0
WILMETTE HARBOR            70 71  330/  2/  4   N/A           0
HARRISON CRIB              76     320/  2/  2   N/A
BURNHAM HARBOR             74     250/  2/  4   N/A
CALUMET HARBOR             73     210/  3/  5 1015.2R
BURNS HARBOR               71     190/  7/  8 1016.3S
MICHIGAN CITY              71     190/  4/  4   N/A
MICHIGAN CITY 6N           75 76  230/  4/  6   N/A           0
ST. JOSEPH                 74 78  190/  4/  4 1016.2R         0
$$

ILZ025>027-034>036-040-047-049-050-058-095>099-271100-
WEST-CENTRAL ILLINOIS

CITY           SKY/WX    TMP DP  RH WIND       PRES   REMARKS
QUINCY         CLEAR     71  68  90 NE3       30.00R
GALESBURG*     CLEAR     64  64  97 SE3       30.02R
MACOMB*        MOCLDY    66  66  99 CALM      30.04R
JACKSONVILLE*  CLOUDY    70  69  95 CALM      30.01R
PITTSFIELD*    CLOUDY    72  71  98 CALM      30.02R
$$

ILZ028>032-037-038-041>044-048-051>054-059>061-271100-
CENTRAL ILLINOIS

CITY           SKY/WX    TMP DP  RH WIND       PRES   REMARKS
PONTIAC        CLEAR     66  66 100 CALM      30.03R FOG
BLOOMINGTON    CLEAR     68  67  96 CALM      30.04R
DECATUR        CLEAR     65  63  93 NE3       30.01R FOG
PEORIA         CLEAR     69  68  96 CALM      30.02R
LACON*         CLEAR     67  66  95 CALM      30.01R
LINCOLN*       CLEAR     66  66  98 CALM      30.02R
SPRINGFIELD    MOCLDY    71  68  90 CALM      30.01R
TAYLORVILLE    MOCLDY    71  68  92 MISG      30.01R
$$

ILZ033-039-045-046-055>057-062-063-271100-
EAST-CENTRAL ILLINOIS

CITY           SKY/WX    TMP DP  RH WIND       PRES   REMARKS
CHAMPAIGN      CLEAR     66  64  93 CALM      30.02R
MATTOON        CLEAR     68  65  90 CALM      30.00R
PARIS*         CLEAR     64  64 100 CALM      30.02R
$$

ILZ079-100>102-271100-
SOUTHWEST ILLINOIS

CITY           SKY/WX    TMP DP  RH WIND       PRES   REMARKS
ALTON          CLOUDY    74  73  99 CALM      30.00R FOG
BELLEVILLE     PTCLDY    74  74 100 CALM      29.98R
CAHOKIA*       CLOUDY    75  72  90 CALM      29.99R
SPARTA*        CLOUDY    73  73  99 CALM      30.00R
$$

ILZ064>066-069>071-074>076-080>082-084>086-088>090-092>094-271100-
SOUTH-CENTRAL ILLINOIS

CITY           SKY/WX    TMP DP  RH WIND       PRES   REMARKS
CARBONDALE     FOG       73  72  96 CALM      29.98S VSB 1/2
CAIRO*         MOCLDY    73  73 100 N3        29.97R
EFFINGHAM*     PTCLDY    72  72 100 CALM      30.01S
MARION         FOG       73  72  94 CALM      29.99R VSB 1/2
MT. VERNON     CLOUDY    73  70  88 MISG      29.98S
CENTRALIA*     CLOUDY    75  75 100 CALM      29.99R FOG
SALEM*         CLOUDY    75  73  94 CALM      30.00R FOG
METROPOLIS*    PTCLDY    73  73  98 CALM      29.98R FOG
$$

ILZ067-068-072-073-078-083-087-091-271100-
SOUTHEAST ILLINOIS

CITY           SKY/WX    TMP DP  RH WIND       PRES   REMARKS
LAWRENCEVILLE  CLOUDY    74  73  97 NE6       29.99R
FLORA*         CLOUDY    74  73  97 CALM      30.00R
FAIRFIELD*     CLOUDY    74  74 100 CALM      29.98R FOG
HARRISBURG*    MOCLDY    72  72 100 CALM      29.99R FOG
ROBINSON*      CLOUDY    70  70 100 CALM      30.01R FOG
CARMI*         CLOUDY    72  72 100 CALM      29.98R FOG
$$

ABBREVIATIONS USED IN REMARKS
   TC - TEMPERATURE IN CELSIUS
  WCI - WIND CHILL INDEX
   HX - HEAT INDEX
  VSB - VISIBILITY
$$




USA.gov is the U.S. government's official web portal to all federal, state and local government web resources and services.